{"data":{"norad_id":46727,"epoch":"2026-08-22T03:19:22.403136Z","epoch_age_seconds":2562613,"freshness":"OLD","line1":"1 46727U 20073BK  26234.13845374  .04750454  12132-4  86104-3 0  9994","line2":"2 46727  53.0141  77.7121 0009628 276.6520  83.3427 16.31551730324042","mean_motion":16.3155173,"eccentricity":0.0009628,"inclination_deg":53.0141,"raan_deg":77.7121,"arg_perigee_deg":276.652,"mean_anomaly_deg":83.3427,"bstar":0.00086104,"rev_number":32404,"period_min":88.259536827557,"perigee_km":182.05075338637,"apogee_km":194.69522502158,"semimajor_km":6566.509989204,"source":"CELESTRAK","updated_at":"2026-08-22T09:00:35.146687Z"}}